Current Version              Previous Version:    01  02  03  04  05  06  07  08  09  10  11  12  13  14  15  16  17  18  19  20  21  22  23  24  25  26  27  28  29  30  
   31  32  33  34  35  36  37  38  39  40  41  42  43  44  45  46  47  48  49  50  51  52  53  54  55  56  57  58  59  60  

[Printable]
014
ASUS44 KFWD 020910
RWRTX
NORTH TEXAS HOURLY WEATHER ROUNDUP
NATIONAL WEATHER SERVICE FORT WORTH TX
400 AM CDT TUE SEP 02 2014

NOTE: "FAIR" INDICATES FEW OR NO CLOUDS BELOW 12,000 FEET WITH NO
SIGNIFICANT WEATHER AND/OR OBSTRUCTIONS TO VISIBILITY.

TXZ118-119-021000-
DALLAS/FORT WORTH METROPLEX

CITY           SKY/WX    TMP DP  RH WIND       PRES   REMARKS
DFW AIRPORT    CLEAR     83  70  64 S16G24    29.87R
DALLAS LOVE    CLEAR     82  70  66 S15       29.88R
FTW MEACHAM    CLEAR     83  69  62 S15G26    29.86S
DAL-EXECUTIVE  CLEAR     82  70  66 S8G17     29.88S
FTW-ALLIANCE   CLEAR     81  69  67 S13G24    29.85S
FTW-NAS-JRB    CLEAR     84  67  56 S18G28    29.91S
FTW-SPINKS     CLEAR     81  69  66 S15       29.90S
ARLINGTON      CLEAR     81  69  67 S13       29.88S
GRAND PRAIRIE  CLEAR     82  68  63 S13       29.89S
ADDISON        CLEAR     83  69  62 S13G21    29.90R
MESQUITE       CLEAR     80  72  76 S13       29.89S
LANCASTER      CLEAR     79  70  74 S9        29.90R
$$

TXZ091>094-102>105-117-120-121-131>134-021000-
NORTH CENTRAL TEXAS

CITY           SKY/WX    TMP DP  RH WIND       PRES   REMARKS
SHRMAN/DENISON CLEAR     80  70  72 S9        29.89R
GAINESVILLE    CLEAR     79  69  70 S12       29.89R
BOWIE          CLEAR     79  69  69 S8        29.86S
BRIDGEPORT     CLEAR     82  65  57 S10       29.88R
DECATUR        CLEAR     81  67  63 S14G21    29.88R
DENTON         CLEAR     82  68  62 S15       29.86S
MCKINNEY       CLEAR     81  71  71 S14       29.88R
GREENVILLE     CLEAR     79  70  73 S10G16    29.90R
ROCKWALL       CLEAR     79  73  82 S12G21    29.88S
TERRELL        CLEAR     80  75  84 S12       29.89F
WAXAHACHIE     CLEAR     79  68  70 S9        29.91S
CLEBURNE       CLEAR     79  73  83 S12       29.91S
GRANBURY       CLEAR     83  69  63 S12       29.89S
$$

TXZ083>090-098>101-113>116-127>130-139>142-154-155-021000-
WESTERN NORTH TEXAS

CITY           SKY/WX    TMP DP  RH WIND       PRES   REMARKS
WICHITA FALLS  CLEAR     83  69  62 S16       29.83R
WF-KICKAPOO    CLEAR     83  67  57 S9        29.85R
VERNON         CLEAR     82  64  53 S10       29.84S
ABILENE        CLEAR     81  67  62 S16       29.90R
ABILENE-DYESS  CLEAR     80  67  64 S16       29.88S
BRECKENRIDGE   CLEAR     82  67  59 S14       29.87S
GRAHAM         CLEAR     82  68  63 S6        29.85S
MINERAL WELLS  CLEAR     81  69  67 S14       29.86F
STEPHENVILLE   CLEAR     78  68  71 S9        29.93F
COMANCHE         N/A     79  68  68 S13G18    29.91F
BROWNWOOD      MOCLDY    79  68  69 S9        29.92S
COLEMAN        CLEAR     79  67  68 S9        29.93S
BRADY          CLEAR     77  70  78 SE8       29.93S
$$

TXZ143>147-156>162-174-175-021000-
CENTRAL TEXAS

CITY           SKY/WX    TMP DP  RH WIND       PRES   REMARKS
WACO           CLEAR     79  72  79 S16       29.91F
WACO-MCGREGOR  CLEAR     79  66  65 S15       29.92F
HILLSBORO      CLEAR     79  70  72 S12       29.91S
CORSICANA      CLEAR     79  73  82 S10       29.91F
MEXIA          CLEAR     76  74  92 S7        29.92S
HEARNE           N/A     76  74  93 SE3       29.94S
CAMERON        MOCLDY    78  74  90 S3        29.93F
TEMPLE         CLEAR     77  68  73 S13       29.93S
KILLEEN        PTCLDY    79  72  78 S13       29.93F
KILLEEN-SKYLRK CLEAR     79  68  69 S9        29.91F
FORT HOOD      CLEAR     79  73  82 SE8       29.93F
GATESVILLE     CLEAR     79  72  78 SE7       29.94F
HAMILTON       CLEAR     78  69  74 S9G16     29.93F
LAMPASAS       CLEAR     78  73  84 S6        29.92F
$$

TXZ095>097-106>112-122>126-135>138-148>153-164>167-021000-
EAST TEXAS

CITY           SKY/WX    TMP DP  RH WIND       PRES   REMARKS
PARIS          CLEAR     77  68  73 S9        29.90S
SULPHUR SPRNGS CLEAR     80  73  78 S9G17     29.92R
MOUNT PLEASANT CLEAR     79  74  85 S8G20     29.92R
GILMER         PTCLDY    79  77  94 S10G20    29.92F
MINEOLA        CLEAR     81  75  83 S7        29.91S
TYLER          PTCLDY    78  74  87 S9        29.93R
LONGVIEW       PTCLDY    78  74  87 S12       29.93F
MARSHALL       CLEAR     78  76  91 S6        29.95F
ATHENS         CLEAR     77  73  88 S8        29.91F
PALESTINE      CLEAR     76  75  95 SE3       29.95S
JACKSONVILLE   CLOUDY    77  76  94 S8        29.97F
HENDERSON      MOCLDY    76  75  96 S5        29.95S
NACOGDOCHES    MOCLDY    77  75  94 SE6       29.96F
LUFKIN         CLOUDY    80  76  87 SE5       29.96S
$$

SUPPLEMENTAL OBSERVATIONS (CENTRAL)

CITY           SKY/WX    TMP DP  RH WIND       PRES   REMARKS
PAT MAYSE LAKE   N/A     79  72  78 SE14        N/A
GREENVILLE       N/A     79  72  78 S7          N/A
CEDAR HILL       N/A     81  70  69 S10         N/A
PALESTINE        N/A     77  73  88 S5          N/A
MCGREGOR         N/A     79  72  78 S14         N/A
TEMPLE           N/A     77  72  83 S8          N/A
$$

SUPPLEMENTAL OBSERVATIONS (WEST)

CITY           SKY/WX    TMP DP  RH WIND       PRES   REMARKS
MILLERS CREEK    N/A    N/A N/A N/A S10         N/A
POSSUM KINGDOM   N/A     81  66  61 S10         N/A
GRANBURY         N/A     82  70  65 S13         N/A
HAMBY            N/A     81  66  61 S15         N/A
IVIE RESERVOIR   N/A     79  66  65 S8          N/A
$$

SUPPLEMENTAL OBSERVATIONS (EAST)

CITY           SKY/WX    TMP DP  RH WIND       PRES   REMARKS
CLARKSVILLE      N/A     77  73  88 S10         N/A
TEXARKANA        N/A     77  72  83 S3          N/A
LINDEN           N/A     77  73  88 S3          N/A
GILMER           N/A     79  75  89 S7G15       N/A
HENDERSON        N/A     77  73  88 S6          N/A
LUFKIN           N/A     79  75  89 MISG        N/A
N SABINE NF      N/A     75  73  94 MISG        N/A
S SABINE NF      N/A     75  73  94 CALM        N/A
$$

SUPPLEMENTAL OBSERVATIONS ARE A COLLECTION OF AUTOMATED INSTRUMENTS
THAT ARE MAINTAINED BY A VARIETY OF FEDERAL AND STATE AGENCIES.
CERTAIN ELEMENTS...SUCH AS HUMIDITY VALUES AND SUSTAINED WIND
SPEEDS...MAY BE APPROXIMATED.